Tracking 18980 objects as of 21-Feb-2018
HD Live streaming from Space Station
objects crossing your sky now

FENGYUN 1C DEB

Track FENGYUN 1C DEB now!
10-day predictions


NORAD ID: 31879
Int'l Code: 1999-025CKE
Perigee: 615.6 km
Apogee: 940.8 km
Inclination: 99.7 °
Period: 100.3 minutes
Semi major axis: 7149 km
RCS: 0.0119 m2 (small)
Launch date: May 10, 1999
Source: People's Republic of China (PRC)
Launch site: Taiyaun Space Center, China (TSC)

Note: This is SATELLITE DEBRIS
aabbcc
Your satellite tracking list
Your tracking list is empty




NASA's NSSDC Master Catalog

Two Line Element Set (TLE):
1 31879U 99025CKE 18051.46984116  .00000089  00000-0  40297-4 0  9990
2 31879  99.7460 239.3934 0227466 320.5861  37.8959 14.36203691559454
Source of the keplerian elements: AFSPC